USA 176 (DSP 22) 1 28158U 04004A 21061.95257713 -.00000223 00000-0 00000+0 0 9998 2 28158 9.4891 37.8284 0000761 310.5815 242.8368 1.00271947 12238 IUS R/B(1) 1 28160U 04004C 21060.07041041 .00000261 00000-0 19274-3 0 9996 2 28160 28.1001 126.3948 7201725 97.8889 341.7185 2.35170780 15904 IUS R/B(2) 1 28161U 04004D 21060.95178685 -.00000046 00000-0 00000-0 0 9995 2 28161 9.5657 38.0395 0009415 352.9064 7.1601 0.99814441 6098